OpenBCM V1.07b12 (Linux)

Packet Radio Mailbox

DB0FHN

[JN59NK Nuernberg]

 Login: GUEST





  
S57NML > KEPLER   05.04.03 00:04l 10 Lines 314 Bytes #999 (0) @ WW
BID : 443S50BOX00P
Read: DB0FHN GUEST
Subj: ISS_keps_#03094
Path: DB0FHN<DB0ZWI<DB0HOT<OK0PBX<OK0PRG<OK0PCC<OK0NAG<9A0BBS<S50BOX
Sent: 030404/2008z @:S50BOX.SVN.EU [Ljubljana ] bcm1.42
From: S57NML @ S50BOX.SVN.EU  (Andrej)
To:   KEPLER @ WW
X-Info: Received from 194.249.12.189 by HTTP-frontend


ISS (ZARYA)             
1 25544U 98067A   03094.19631819  .00031503  00000-0  39090-3 0  8539
2 25544  51.6355  31.8334 0008508  43.9363  39.2051 15.59695320249468

73's de Andrej
TX:4/4/2003 20:08z 


Read previous mail | Read next mail


 15.09.2025 08:59:51lGo back Go up